Weather History for Alturas, CA

Change the Weather History Date:

Sunday, July 14, 2013

  Actual Average Record
Temperature  
Mean Temperature 67 °F 67 °F  
Max Temperature 92 °F 88 °F 102 °F (1935)
Min Temperature 42 °F 45 °F 34 °F (1942)
Degree Days  
Heating Degree Days 0 1  
Month to date heating degree days 2 24  
Since 1 June heating degree days 158 204  
Since 1 July heating degree days 2 24  
Cooling Degree Days 2 3  
Month to date cooling degree days 71 28  
Year to date cooling degree days 114 39  
Since 1 June cooling degree days 114 39  
Growing Degree Days 17 (Base 50)    
Moisture  
Dew Point 31 °F    
Average Humidity 36    
Maximum Humidity 62    
Minimum Humidity 10    
Precipitation  
Precipitation 0.00 in 0.01 in 0.07 in (1963)
Month to date precipitation T 0.11  
Year to date precipitation 4.43 8.55  
Sea Level Pressure  
Sea Level Pressure 29.99 in    
Wind  
Wind Speed 4 mph (West)    
Max Wind Speed 17 mph    
Max Gust Speed 23 mph    
Visibility 10 miles    
Events      
T = Trace of Precipitation, MM = Missing Value Source: NWS Daily Summary

Daily Weather History Graph

Daily Weather History Graph

Search for Another Location

Airport:

Trip Planner

Search our weather history database for the weather conditions in past years. The results will help you decide how hot, cold, wet, or windy it might be!

Date:

Astronomy

Jul. 14, 2013 Rise Set
Actual Time 5:41 AM PDT 8:34 PM PDT
Civil Twilight 5:08 AM PDT 9:07 PM PDT
Nautical Twilight 4:26 AM PDT 9:49 PM PDT
Astronomical Twilight 3:37 AM PDT 10:37 PM PDT
Moon 12:08 PM PDT (7/14) 11:44 PM PDT (7/14)
Length of Visible Light 15h 59m
Length of Day
14h 53m
Waxing Crescent, 36% of the Moon is Illuminated
Jul 14
Waxing Crescent
Jul 15
First Quarter
Jul 22
Full
Jul 29
Last Quarter
Aug 6
New

Hourly Weather History & Observations

Time (PDT) Temp. Windchill Dew Point Humidity Pressure Visibility Wind Dir Wind Speed Gust Speed Precip Events Conditions
12:55 AM 48.9 °F - 30.9 °F 50% 30.04 in 10.0 mi Calm Calm - N/A   Clear
1:55 AM 51.1 °F - 34.0 °F 52% 30.03 in 10.0 mi Calm Calm - N/A   Clear
2:55 AM 46.0 °F - 30.0 °F 54% 30.04 in 10.0 mi Calm Calm - N/A   Clear
3:55 AM 46.0 °F 43.9 °F 32.0 °F 58% 30.04 in 10.0 mi ESE 4.6 mph - N/A   Clear
4:55 AM 45.0 °F - 30.9 °F 58% 30.05 in 10.0 mi Calm Calm - N/A   Clear
5:55 AM 43.0 °F - 30.0 °F 60% 30.07 in 10.0 mi Calm Calm - N/A   Clear
6:55 AM 48.9 °F - 32.0 °F 52% 30.06 in 10.0 mi Calm Calm - N/A   Clear
7:55 AM 57.9 °F - 35.1 °F 42% 30.06 in 10.0 mi Calm Calm - N/A   Clear
8:55 AM 66.9 °F - 32.0 °F 27% 30.05 in 10.0 mi Calm Calm - N/A   Clear
9:55 AM 73.0 °F - 33.1 °F 23% 30.04 in 10.0 mi Calm Calm - N/A   Clear
10:55 AM 79.0 °F - 36.0 °F 21% 30.02 in 10.0 mi East 4.6 mph - N/A   Clear
11:55 AM 81.0 °F - 28.9 °F 15% 30.02 in 10.0 mi Calm Calm - N/A   Clear
12:55 PM 86.0 °F - 28.9 °F 13% 30.00 in 10.0 mi North 8.1 mph - N/A   Clear
1:55 PM 86.0 °F - 28.9 °F 13% 29.97 in 10.0 mi Variable 6.9 mph - N/A   Clear
2:55 PM 89.1 °F - 28.9 °F 12% 29.95 in 10.0 mi Variable 5.8 mph - N/A   Clear
3:55 PM 91.0 °F - 28.0 °F 10% 29.92 in 10.0 mi WNW 11.5 mph 18.4 mph N/A   Clear
4:55 PM 90.0 °F - 27.0 °F 10% 29.92 in 10.0 mi WSW 11.5 mph 17.3 mph N/A   Clear
5:55 PM 89.1 °F - 28.0 °F 11% 29.92 in 10.0 mi West 13.8 mph 21.9 mph N/A   Clear
6:55 PM 87.1 °F - 30.9 °F 13% 29.92 in 10.0 mi WSW 16.1 mph - N/A   Clear
7:55 PM 82.0 °F - 34.0 °F 18% 29.92 in 10.0 mi West 9.2 mph - N/A   Clear
8:55 PM 75.0 °F - 33.1 °F 22% 29.93 in 10.0 mi West 9.2 mph - N/A   Clear
9:55 PM 69.1 °F - 32.0 °F 25% 29.95 in 10.0 mi Calm Calm - N/A   Clear
10:55 PM 66.0 °F - 34.0 °F 30% 29.95 in 10.0 mi East 4.6 mph - N/A   Clear
11:55 PM 57.0 °F - 35.1 °F 44% 29.96 in 10.0 mi Calm Calm - N/A   Clear